Content
SEND FEEDBACK

Daily
Averages
Monthly
Summary
France

LE HAVRE, FRANCE


Home > Europe > France
Elevation: 103 meters     Latitude: 49 31N     Longitude: 000 04E

WEATHER
 
SELECT A DAY
Number of Records: 175,479;   Date Range: 3/4/97 - 7/8/14
 
SHARE

PRINT THIS DATA

[ ← Previous Day ]
WEATHER ALMANAC - 4 FEBRUARY, 2013
[ Next Day → ]
[ °F ]   °C
Weather ElementAverageHighLow
Temperature8.2 °C9 °C (7:00 am)7 °C (9:00 pm)
Dewpoint6 °C8 °C (12:30 am)3 °C (3:00 pm)
Humidity86.4 %100 % (12:30 am)71 % (3:00 pm)
Barometer1017.3 hPa1017.9 hPa (12:00 pm)1015.2 hPa (11:30 pm)
Wind Speed28.3 km/h35.2 km/h (5:00 pm)
Wind Gust53.8 km/h (8:00 am)
Weather ElementAverage
Visibility9.3 km
Wind DirectionWSW (259.6 °)

Weather ElementTotal
Precipitation---
Heating Degree Days10.3 (Base 18.3)
Averaged from 45 records on 4 February, 2013
WEATHER CONDITIONS BREAKOUT
WIND DIRECTION BREAKOUT
WEATHER BY HOUR - 4 FEBRUARY, 2013
[ °F ]   °C
Local TimeTemperatureDewpointHumidityBarometerVisibilityWind DirectionWind SpeedGust SpeedPrecipitationEventsConditions
12:30 AM8 °C8 °C100 %1017.3 hPaWSW (250°)27.8 km/hOvercast
1:00 AM8 °C8 °C100 %1017.3 hPa1.9 kmWest (260°)31.5 km/hMist
1:30 AM8 °C8 °C100 %1017.3 hPa0.3 kmWest (260°)25.9 km/hFogFog
2:00 AM8 °C8 °C100 %1017.3 hPa10 kmWSW (250°)25.9 km/h
2:30 AM8 °C8 °C100 %1017.3 hPa10 kmWest (260°)29.6 km/h50.1 km/hOvercast
3:00 AM8 °C8 °C100 %1017.3 hPa1.9 kmWSW (250°)29.6 km/hOvercast
3:30 AM8 °C8 °C100 %1017.3 hPa10 kmWest (260°)29.6 km/hOvercast
4:00 AM8 °C8 °C100 %1017.3 hPa10 kmWSW (250°)27.8 km/hOvercast
4:30 AM8 °C7 °C93 %1016.3 hPa10 kmWSW (250°)25.9 km/hOvercast
5:00 AM8 °C7 °C93 %1016.3 hPa10 kmWSW (250°)29.6 km/hOvercast
5:30 AM8 °C7 °C93 %1016.3 hPa10 kmWSW (250°)29.6 km/hOvercast
6:00 AM8 °C7 °C93 %1017.3 hPa10 kmWSW (240°)27.8 km/hMostly Cloudy
6:30 AM8 °C7 °C93 %1016.3 hPa10 kmWSW (240°)29.6 km/hOvercast
7:00 AM9 °C8 °C93 %1016.3 hPa10 kmWSW (240°)29.6 km/hOvercast
7:30 AM9 °C8 °C93 %1016.3 hPa10 kmWest (260°)31.5 km/hOvercast
8:00 AM9 °C8 °C93 %1017.3 hPa10 kmWest (260°)33.3 km/h53.8 km/hOvercast
8:30 AM9 °C8 °C93 %1017.3 hPa10 kmWest (260°)29.6 km/hOvercast
9:00 AM9 °C8 °C93 %1017.3 hPa10 kmWest (260°)29.6 km/hOvercast
9:30 AM9 °C8 °C93 %1017.3 hPa10 kmWest (260°)29.6 km/hOvercast
10:00 AM9 °C8 °C93 %1017.3 hPa10 kmWSW (250°)22.2 km/hOvercast
10:30 AM9 °C8 °C93 %1017.3 hPa10 kmWest (260°)25.9 km/hOvercast
12:00 PM9 °C8 °C93 %1017.9 hPa10 kmWest (270°)24.1 km/hOvercast
12:30 PM9 °C7 °C87 %1017.9 hPa10 kmWest (270°)25.9 km/hOvercast
1:00 PM9 °C8 °C93 %1017.9 hPa10 kmWest (280°)27.8 km/hMostly Cloudy
1:30 PM9 °C6 °C82 %1017.9 hPa10 kmWNW (290°)31.5 km/hOvercast
2:00 PM9 °C5 °C76 %1017.9 hPa10 kmWNW (300°)27.8 km/hOvercast
2:30 PM9 °C5 °C76 %1017.9 hPa10 kmWNW (290°)25.9 km/hOvercast
3:00 PM8 °C3 °C71 %1017.9 hPa10 kmWNW (290°)31.5 km/hOvercast
3:30 PM8 °C4 °C76 %1017.9 hPa10 kmWest (280°)27.8 km/hOvercast
4:00 PM8 °C4 °C76 %1017.9 hPa10 kmWest (280°)29.6 km/hOvercast
4:30 PM8 °C4 °C76 %1017.9 hPa10 kmWest (280°)31.5 km/hOvercast
5:00 PM8 °C3 °C71 %1017.9 hPa10 kmWest (280°)35.2 km/hOvercast
5:30 PM8 °C3 °C71 %1017.9 hPa10 kmWest (270°)27.8 km/hMostly Cloudy
6:00 PM8 °C3 °C71 %1017.9 hPa10 kmWest (260°)24.1 km/hOvercast
6:30 PM8 °C4 °C76 %1017.9 hPa10 kmWest (260°)24.1 km/hOvercast
7:00 PM8 °C4 °C76 %1017.9 hPa10 kmWSW (250°)25.9 km/hOvercast
7:30 PM8 °C4 °C76 %1017.9 hPa10 kmWSW (240°)24.1 km/hOvercast
8:00 PM8 °C4 °C76 %1017.3 hPa10 kmWSW (240°)27.8 km/hOvercast
8:30 PM8 °C3 °C71 %1017.3 hPa10 kmWest (260°)27.8 km/hOvercast
9:00 PM7 °C4 °C81 %1017.3 hPa10 kmWSW (240°)27.8 km/hOvercast
9:30 PM8 °C4 °C76 %1016.3 hPa10 kmWSW (250°)29.6 km/hOvercast
10:00 PM7 °C4 °C81 %1017.3 hPa10 kmWSW (250°)31.5 km/hRainLight Rain
10:30 PM7 °C4 °C81 %1016.3 hPa10 kmWSW (250°)24.1 km/hMostly Cloudy
11:00 PM7 °C4 °C81 %1016.3 hPa10 kmWSW (240°)27.8 km/hOvercast
11:30 PM7 °C5 °C87 %1015.2 hPa10 kmWSW (240°)27.8 km/hOvercast
Hourly data recorded from LFOH, located 0 kilometers away from Le Havre, France







STORIES FROM OUR PARTNERS